Flag for Ireland Weather past 2 weeks in Dundalk, Ireland

Now
46 °F

Cool.


Feels Like: 45 °F
Forecast: 46 / 56 °F
Wind: 3 mph from Northwest

Location: Glenanne

Current Time: May 23, 2015 at 7:47:25 AM

Latest Report: May 23, 2015 at 7:00 AM


Visibility: 9 mi

Pressure: 30.32 "Hg

Humidity: 89%

Dew point: 43 °F

Location of DundalkLocation

Historic Weather in Dundalk — Graph

°F

Dundalk temperature yesterday

Maximum temperature yesterday: 59 °F (at 3:00 PM)
Minimum temperature yesterday: 47 °F (at 11:00 PM)
Average temperature yesterday: 55 °F

Past Weeks' High & Low Weather Summary

 TemperatureHumidityPressure
High59 °F (May 22, 3:00 PM)100% (May 8, 6:00 AM)30.35 "Hg (May 8, 6:00 AM)
Low37 °F (May 13, 5:00 AM)46% (May 11, 5:00 PM)29.41 "Hg (May 18, 6:00 PM)
Average48 °F83%29.95 "Hg
* Reported May 8 6:00 AM — May 23 6:00 AM, Dundalk, Weather by CustomWeather, © 2015

Note: Actual official high and low records may vary slightly from our data, if they occured in-between our weather recording intervals... More about our weather records

Advertising

Dundalk weather history for previous 24 hours

 ConditionsComfort  
Time TempWeatherWind HumidityBarometerVisibility
6:00 AM
Sat, May 23
46 °FCool.2 mph90%30.32 "Hg11 mi
5:00 AM46 °FCool.2 mph88%30.32 "Hg9 mi
3:00 AM46 °FCool.6 mph88%30.33 "Hg12 mi
2:00 AM44 °FQuite cool.2 mph93%30.34 "Hg9 mi
1:00 AM45 °FCool.2 mph92%30.34 "Hg8 mi
12:00 AM47 °FCool.2 mph90%30.35 "Hg9 mi
11:00 PM
Fri, May 22
47 °FCool.1 mph92%30.34 "Hg9 mi
9:00 PM52 °FCool.7 mph78%30.30 "Hg22 mi
8:00 PM54 °FCool.7 mph75%30.29 "Hg18 mi
7:00 PM56 °FCool.10 mph74%30.27 "Hg28 mi
6:00 PM57 °FCool.12 mph70%30.26 "Hg31 mi
5:00 PM59 °FCool.13 mph74%30.26 "Hg28 mi
4:00 PM58 °FCool.10 mph75%30.25 "Hg31 mi
3:00 PM59 °FCool.12 mph72%30.24 "Hg31 mi
2:00 PM58 °FCool.8 mph86%30.23 "Hg25 mi
1:00 PM58 °FCool.9 mph81%30.23 "Hg14 mi
12:00 PM56 °FCool.8 mph91%30.23 "Hg16 mi
11:00 AM56 °FCool.9 mph87%30.22 "Hg25 mi
10:00 AM55 °FCool.6 mph91%30.21 "Hg18 mi
9:00 AM54 °FCool.7 mph96%30.22 "Hg7 mi
8:00 AM53 °FRain showers. Cloudy.6 mph99%30.21 "Hg7 mi
7:00 AM53 °FCool.7 mph100%30.21 "Hg13 mi
Weather by CustomWeather, © 2015

See weather overviewHow to use our weather pages